User: anonymous   Login
Location: Newark
(47.5500°N, 8.6167°E)
Time: 04:11:00
(UTC+00:00)
Language:

BUGSAT 1 - Orbit

View from above orbital plane
View from above orbital plane
View from above satellite
View from above satellite

Ground track
Ground track

The orbit data is extracted from the following two-line orbital elements,

1 40014U 14033E   20092.84712810  .00000799  00000-0  77315-4 0  9996
2 40014  98.0555  52.4936 0031433 183.2660 176.8383 14.95426306315568
Epoch (UTC): 01 April 2020 20:19:51
Eccentricity: 0.0031433
inclination: 98.0555°
perigee height: 559 km
apogee height: 603 km
right ascension of ascending node: 52.4936°
argument of perigee: 183.2660°
revolutions per day: 14.95426306
mean anomaly at epoch: 176.8383°
orbit number at epoch: 31556

The dashed part of the orbit path shows where the satellite is in the earth's shadow,  

DLR